QPF
0.00 0.00 0.00 0.00 0.00 0.00 0.00 0.00 0.00 0.00 0.00 0.00 0.00 0.00 0.00 0.00 0.00 0.00 0.00 0.00 0.00 0.00 0.00 0.00 0.00 0.00 0.00 0.00 0.01 0.03 0.13 0.02 0.00 0.00 0.00 0.00 0.00 0.00 0.01 0.02 0.00 0.00 0.00 0.00 0.00 0.03 0.05 0.02 0.02 0.00 0.01 0.00 0.00 0.00
0.00 0.00 0.00 0.00 0.00 0.00 0.00 0.00 0.00 0.00 0.00 0.00 0.00 0.00 0.00 0.00 0.00 0.00 0.00 0.00 0.00 0.00 0.00 0.00 0.00 0.00 0.00 0.00 0.00 0.00 0.03 0.01 0.00 0.00 0.00 0.00 0.00 0.00 0.00 0.01 0.00 0.00 0.00 0.00 0.00 0.00 0.06 0.06 0.08 0.05 0.08 0.04 0.01 0.00
0.00 0.00 0.00 0.00 0.00 0.00 0.00 0.00 0.00 0.00 0.00 0.00 0.00 0.00 0.00 0.00 0.00 0.00 0.00 0.00 0.00 0.00 0.00 0.00 0.00 0.00 0.00 0.00 0.00 0.00 0.00 0.00 0.01 0.11 0.16 0.10 0.02 0.09 0.06 0.00 0.00 0.00 0.01 0.02 0.01 0.00 0.05 0.07 0.02 0.03 0.03 0.02 0.01 0.00
0.00 0.00 0.00 0.00 0.00 0.00 0.00 0.00 0.00 0.00 0.00 0.00 0.00 0.00 0.00 0.00 0.01 0.00 0.00 0.00 0.00 0.00 0.00 0.00 0.00 0.00 0.00 0.00 0.00 0.00 0.00 0.00 0.00 0.11 0.44 0.24 0.04 0.05 0.02 0.00 0.02 0.03 0.12 0.20 0.05 0.00 0.00 0.06 0.28 0.28 0.06 0.03 0.03 0.01
0.00 0.00 0.00 0.00 0.00 0.00 0.00 0.00 0.00 0.00 0.00 0.00 0.00 0.00 0.01 0.01 0.01 0.00 0.00 0.00 0.00 0.00 0.00 0.00 0.00 0.00 0.00 0.00 0.00 0.00 0.00 0.00 0.00 0.00 0.00 0.00 0.00 0.01 0.02 0.02 0.09 0.40 0.26 0.12 0.08 0.01 0.00 0.05 0.20 0.31 0.32 0.52 0.51 0.14
0.00 0.00 0.00 0.00 0.00 0.00 0.00 0.00 0.00 0.00 0.00 0.00 0.00 0.00 0.01 0.00 0.00 0.00 0.00 0.00 0.00 0.00 0.00 0.00 0.00 0.00 0.00 0.00 0.00 0.00 0.00 0.00 0.00 0.00 0.00 0.00 0.00 0.00 0.00 0.04 0.08 0.05 0.02 0.01 0.01 0.07 0.04 0.00 0.01 0.07 0.17 0.56 0.37 0.09
0.00 0.00 0.00 0.00 0.00 0.00 0.00 0.00 0.00 0.00 0.00 0.00 0.00 0.00 0.00 0.00 0.00 0.00 0.00 0.00 0.00 0.00 0.00 0.00 0.00 0.00 0.00 0.00 0.00 0.00 0.00 0.00 0.00 0.00 0.00 0.00 0.00 0.00 0.00 0.00 0.00 0.00 0.01 0.00 0.01 0.40 0.55 0.06 0.04 0.12 0.14 0.09 0.05 0.07
0.00 0.00 0.00 0.00 0.00 0.00 0.00 0.00 0.00 0.00 0.00 0.00 0.00 0.00 0.00 0.00 0.00 0.00 0.00 0.00 0.00 0.00 0.00 0.00 0.00 0.00 0.00 0.00 0.00 0.00 0.00 0.00 0.00 0.00 0.00 0.00 0.00 0.00 0.00 0.00 0.00 0.00 0.00 0.00 0.02 0.12 0.45 1.02 0.84 0.24 0.12 0.06 0.04 0.03
0.00 0.00 0.00 0.00 0.00 0.00 0.00 0.00 0.00 0.00 0.00 0.00 0.00 0.00 0.00 0.00 0.00 0.00 0.00 0.00 0.00 0.00 0.00 0.00 0.00 0.00 0.03 0.02 0.00 0.00 0.00 0.00 0.00 0.00 0.00 0.00 0.00 0.00 0.00 0.00 0.00 0.00 0.00 0.02 0.07 0.05 0.10 0.30 0.54 0.07 0.04 0.02 0.00 0.00
0.00 0.00 0.00 0.00 0.00 0.00 0.00 0.00 0.00 0.00 0.00 0.00 0.00 0.00 0.00 0.00 0.00 0.00 0.00 0.00 0.00 0.00 0.00 0.00 0.00 0.00 0.00 0.01 0.00 0.01 0.01 0.00 0.01 0.00 0.00 0.00 0.00 0.00 0.00 0.00 0.00 0.02 0.01 0.03 0.10 0.08 0.04 0.01 0.00 0.00 0.00 0.00 0.00 0.00
0.00 0.00 0.00 0.00 0.00 0.00 0.00 0.00 0.00 0.00 0.00 0.00 0.00 0.00 0.00 0.00 0.00 0.00 0.01 0.01 0.01 0.02 0.00 0.00 0.00 0.00 0.00 0.01 0.01 0.10 0.27 0.15 0.13 0.03 0.00 0.00 0.00 0.00 0.00 0.04 0.04 0.03 0.02 0.04 0.07 0.05 0.00 0.00 0.00 0.00 0.00 0.00 0.00 0.00
0.00 0.00 0.00 0.00 0.00 0.00 0.00 0.00 0.00 0.00 0.00 0.00 0.00 0.00 0.00 0.00 0.00 0.00 0.00 0.00 0.01 0.03 0.00 0.00 0.00 0.00 0.00 0.00 0.01 0.04 0.18 0.45 0.39 0.05 0.00 0.00 0.02 0.03 0.03 0.09 0.16 0.09 0.06 0.09 0.03 0.00 0.00 0.00 0.00 0.00 0.00 0.00 0.00 0.00
0.00 0.00 0.00 0.00 0.00 0.00 0.00 0.00 0.00 0.00 0.00 0.00 0.00 0.00 0.00 0.00 0.00 0.00 0.01 0.04 0.06 0.02 0.02 0.00 0.00 0.00 0.00 0.00 0.00 0.05 0.11 0.10 0.04 0.04 0.02 0.01 0.05 0.04 0.05 0.01 0.01 0.02 0.01 0.00 0.00 0.00 0.00 0.00 0.00 0.00 0.00 0.00 0.00 0.00
0.00 0.00 0.00 0.00 0.00 0.00 0.00 0.00 0.00 0.00 0.00 0.00 0.00 0.00 0.00 0.00 0.00 0.00 0.00 0.02 0.01 0.00 0.00 0.00 0.01 0.00 0.01 0.06 0.05 0.04 0.03 0.03 0.02 0.00 0.01 0.01 0.03 0.05 0.03 0.00 0.00 0.01 0.00 0.00 0.00 0.00 0.00 0.00 0.00 0.00 0.00 0.00 0.00 0.00
0.00 0.00 0.00 0.00 0.00 0.00 0.00 0.00 0.00 0.00 0.00 0.00 0.00 0.00 0.00 0.00 0.00 0.00 0.00 0.01 0.00 0.00 0.00 0.00 0.01 0.03 0.05 0.03 0.04 0.10 0.10 0.03 0.02 0.04 0.09 0.20 0.12 0.07 0.05 0.01 0.02 0.01 0.00 0.00 0.00 0.00 0.00 0.00 0.00 0.00 0.00 0.00 0.00 0.00
0.00 0.00 0.00 0.00 0.00 0.00 0.00 0.00 0.00 0.00 0.00 0.00 0.00 0.00 0.00 0.00 0.00 0.01 0.02 0.03 0.01 0.00 0.01 0.02 0.04 0.02 0.02 0.01 0.00 0.05 0.08 0.07 0.12 0.09 0.13 0.31 0.34 0.26 0.05 0.01 0.00 0.00 0.00 0.00 0.00 0.00 0.00 0.00 0.00 0.00 0.00 0.00 0.00 0.00
0.00 0.00 0.00 0.00 0.00 0.00 0.00 0.00 0.00 0.00 0.02 0.00 0.00 0.00 0.00 0.00 0.01 0.04 0.04 0.01 0.00 0.01 0.07 0.07 0.06 0.04 0.02 0.01 0.00 0.00 0.02 0.10 0.08 0.16 0.54 0.55 0.60 0.38 0.06 0.00 0.01 0.00 0.00 0.00 0.00 0.00 0.00 0.00 0.00 0.00 0.00 0.00 0.00 0.00
0.00 0.00 0.00 0.00 0.00 0.00 0.00 0.00 0.04 0.06 0.01 0.00 0.00 0.00 0.00 0.02 0.05 0.03 0.00 0.00 0.02 0.05 0.10 0.07 0.08 0.07 0.03 0.02 0.05 0.05 0.03 0.02 0.01 0.12 0.23 0.29 0.23 0.22 0.07 0.02 0.01 0.01 0.01 0.00 0.00 0.00 0.00 0.00 0.00 0.00 0.00 0.00 0.00 0.00
0.00 0.00 0.00 0.00 0.00 0.00 0.01 0.06 0.04 0.13 0.05 0.00 0.00 0.01 0.03 0.06 0.03 0.00 0.00 0.01 0.07 0.11 0.12 0.13 0.10 0.09 0.09 0.10 0.14 0.08 0.08 0.08 0.05 0.10 0.17 0.22 0.22 0.18 0.13 0.07 0.06 0.05 0.08 0.04 0.01 0.00 0.00 0.00 0.00 0.00 0.00 0.00 0.00 0.00
0.00 0.00 0.00 0.00 0.00 0.00 0.09 0.09 0.05 0.10 0.07 0.02 0.06 0.16 0.12 0.02 0.00 0.00 0.02 0.04 0.09 0.16 0.17 0.14 0.13 0.09 0.03 0.01 0.02 0.01 0.04 0.05 0.17 0.48 0.27 0.18 0.12 0.15 0.24 0.19 0.07 0.05 0.02 0.01 0.00 0.00 0.00 0.00 0.00 0.00 0.00 0.00 0.00 0.00
0.00 0.00 0.00 0.00 0.00 0.01 0.07 0.24 0.24 0.05 0.01 0.01 0.09 0.13 0.09 0.06 0.03 0.00 0.01 0.00 0.00 0.01 0.04 0.02 0.04 0.01 0.00 0.00 0.00 0.02 0.04 0.04 0.41 0.82 0.43 0.20 0.11 0.08 0.04 0.02 0.02 0.00 0.00 0.00 0.00 0.00 0.00 0.00 0.00 0.00 0.00 0.00 0.00 0.00
0.00 0.00 0.00 0.00 0.00 0.00 0.05 0.03 0.07 0.00 0.00 0.01 0.01 0.03 0.09 0.10 0.12 0.03 0.05 0.02 0.00 0.01 0.02 0.02 0.01 0.01 0.01 0.01 0.04 0.07 0.06 0.07 0.14 0.24 0.45 0.14 0.05 0.01 0.00 0.00 0.00 0.00 0.00 0.00 0.00 0.00 0.00 0.00 0.00 0.00 0.00 0.00 0.00 0.00
0.00 0.00 0.00 0.00 0.01 0.01 0.00 0.00 0.00 0.00 0.01 0.00 0.00 0.01 0.01 0.05 0.16 0.05 0.07 0.15 0.02 0.03 0.01 0.01 0.04 0.10 0.08 0.02 0.05 0.06 0.05 0.05 0.08 0.05 0.02 0.02 0.00 0.00 0.00 0.00 0.00 0.00 0.00 0.00 0.00 0.00 0.00 0.00 0.00 0.00 0.00 0.00 0.00 0.00
0.00 0.00 0.00 0.01 0.02 0.00 0.00 0.00 0.00 0.00 0.00 0.00 0.01 0.02 0.00 0.00 0.02 0.05 0.08 0.14 0.06 0.01 0.01 0.01 0.07 0.22 0.20 0.12 0.05 0.04 0.01 0.00 0.00 0.00 0.00 0.00 0.00 0.00 0.00 0.00 0.00 0.00 0.00 0.00 0.00 0.00 0.00 0.00 0.00 0.00 0.00 0.02 0.01 0.00
0.00 0.00 0.00 0.00 0.00 0.00 0.00 0.00 0.00 0.00 0.00 0.00 0.01 0.04 0.00 0.00 0.02 0.08 0.06 0.14 0.10 0.04 0.02 0.02 0.02 0.04 0.07 0.05 0.01 0.00 0.00 0.00 0.00 0.00 0.00 0.00 0.00 0.00 0.00 0.00 0.00 0.00 0.00 0.00 0.00 0.00 0.00 0.00 0.00 0.00 0.00 0.00 0.00 0.00
0.00 0.00 0.00 0.01 0.00 0.00 0.00 0.01 0.01 0.00 0.00 0.00 0.00 0.00 0.00 0.00 0.03 0.05 0.05 0.13 0.12 0.11 0.06 0.03 0.02 0.01 0.02 0.01 0.00 0.00 0.00 0.00 0.00 0.00 0.00 0.00 0.00 0.00 0.00 0.00 0.00 0.00 0.00 0.00 0.00 0.00 0.00 0.00 0.00 0.00 0.00 0.00 0.00 0.00
0.00 0.00 0.00 0.00 0.00 0.00 0.02 0.01 0.00 0.00 0.01 0.06 0.02 0.01 0.05 0.12 0.10 0.06 0.10 0.08 0.09 0.10 0.07 0.04 0.01 0.00 0.00 0.00 0.00 0.00 0.00 0.00 0.00 0.00 0.00 0.00 0.00 0.00 0.00 0.00 0.00 0.00 0.00 0.00 0.00 0.00 0.00 0.00 0.00 0.00 0.00 0.00 0.00 0.00
0.00 0.00 0.00 0.00 0.00 0.00 0.00 0.00 0.00 0.01 0.01 0.02 0.05 0.09 0.11 0.17 0.13 0.09 0.07 0.03 0.01 0.01 0.04 0.01 0.00 0.00 0.00 0.00 0.00 0.00 0.00 0.00 0.00 0.00 0.00 0.00 0.00 0.00 0.00 0.00 0.00 0.00 0.00 0.00 0.00 0.00 0.00 0.00 0.00 0.00 0.00 0.00 0.00 0.00
0.00 0.00 0.00 0.00 0.00 0.00 0.00 0.00 0.00 0.00 0.00 0.06 0.11 0.09 0.10 0.08 0.06 0.06 0.04 0.01 0.00 0.01 0.00 0.00 0.00 0.00 0.00 0.00 0.00 0.00 0.00 0.00 0.00 0.00 0.00 0.00 0.00 0.00 0.00 0.00 0.00 0.00 0.00 0.00 0.00 0.00 0.00 0.00 0.00 0.00 0.00 0.00 0.00 0.00
0.00 0.00 0.00 0.00 0.00 0.00 0.00 0.00 0.00 0.00 0.00 0.01 0.05 0.06 0.04 0.06 0.01 0.01 0.01 0.01 0.03 0.02 0.01 0.04 0.01 0.00 0.01 0.01 0.02 0.00 0.00 0.00 0.00 0.00 0.00 0.00 0.00 0.00 0.00 0.00 0.00 0.00 0.00 0.00 0.00 0.00 0.00 0.00 0.00 0.00 0.00 0.00 0.00 0.00
0.00 0.00 0.00 0.00 0.00 0.00 0.00 0.00 0.00 0.00 0.00 0.00 0.02 0.16 0.15 0.02 0.00 0.00 0.01 0.00 0.02 0.01 0.06 0.08 0.02 0.00 0.01 0.01 0.00 0.00 0.00 0.00 0.00 0.00 0.00 0.00 0.00 0.00 0.00 0.00 0.00 0.00 0.00 0.00 0.00 0.00 0.00 0.00 0.00 0.00 0.00 0.00 0.00 0.00
0.00 0.00 0.00 0.00 0.00 0.00 0.00 0.00 0.00 0.00 0.00 0.05 0.07 0.02 0.02 0.04 0.02 0.02 0.01 0.01 0.07 0.18 0.02 0.02 0.02 0.01 0.01 0.01 0.00 0.00 0.00 0.00 0.00 0.00 0.00 0.00 0.00 0.00 0.00 0.00 0.00 0.00 0.00 0.00 0.00 0.00 0.00 0.00 0.00 0.00 0.00 0.00 0.00 0.00
0.00 0.00 0.00 0.00 0.00 0.00 0.00 0.00 0.00 0.02 0.04 0.02 0.04 0.01 0.02 0.03 0.06 0.04 0.00 0.02 0.01 0.01 0.00 0.00 0.03 0.04 0.01 0.00 0.00 0.00 0.00 0.00 0.00 0.00 0.00 0.00 0.00 0.00 0.00 0.00 0.00 0.00 0.00 0.00 0.00 0.00 0.00 0.00 0.00 0.00 0.00 0.00 0.00 0.00
MSLP
1021.25 1020.71 1020.17 1019.62 1019.11 1018.61 1018.07 1017.55 1017.03 1016.51 1015.99 1015.45 1014.99 1014.56 1014.20 1013.90 1013.61 1013.33 1011.50 1010.32 1009.80 1008.52 1006.27 1005.17 1004.40 1003.90 1003.13 1002.61 1002.41 1002.09 1002.06 1001.37 1000.99 1001.45 1001.67 1001.92 1001.50 1001.83 1002.00 1002.94 1002.85 1002.63 1003.06 1003.19 1003.23 1003.03 1002.94 1002.63 1001.56 1002.45 1002.96 1000.57 999.08 998.25
1021.07 1020.54 1019.99 1019.42 1018.88 1018.37 1017.84 1017.35 1016.80 1016.30 1015.80 1015.28 1014.81 1014.37 1014.03 1013.73 1013.53 1013.31 1011.73 1009.97 1009.54 1008.62 1006.02 1004.57 1003.93 1003.28 1002.91 1002.54 1002.35 1002.24 1002.16 1002.10 1001.96 1002.50 1003.05 1003.37 1003.68 1003.58 1003.42 1003.67 1003.47 1004.10 1004.08 1004.16 1004.28 1003.84 1003.70 1003.89 1003.38 1003.13 1004.07 1003.03 1001.29 999.43
1020.86 1020.33 1019.79 1019.23 1018.66 1018.12 1017.57 1017.00 1016.47 1015.94 1015.44 1014.98 1014.55 1014.13 1013.77 1013.52 1013.33 1013.30 1012.46 1011.12 1010.09 1008.08 1004.87 1003.14 1001.34 1000.56 1000.77 1000.75 1000.73 1001.38 1001.42 1001.66 1002.04 1003.59 1005.01 1005.46 1005.23 1005.24 1004.92 1004.65 1004.32 1004.38 1005.02 1004.78 1004.63 1004.05 1004.18 1003.86 1003.92 1003.65 1004.81 1004.22 1002.45 1001.02
1020.66 1020.12 1019.56 1019.00 1018.44 1017.85 1017.27 1016.68 1016.13 1015.58 1015.06 1014.59 1014.21 1013.83 1013.44 1013.11 1012.88 1012.80 1012.42 1011.13 1010.56 1008.76 1006.27 1002.00 1000.36 999.95 998.69 998.67 999.57 999.92 1000.24 1000.56 1001.03 1002.39 1004.48 1005.66 1005.02 1004.67 1004.49 1003.81 1004.27 1004.98 1005.51 1006.07 1005.27 1004.91 1004.66 1004.74 1003.55 1003.62 1003.46 1002.38 1001.89 1001.24
1020.49 1019.91 1019.33 1018.78 1018.22 1017.59 1016.95 1016.33 1015.77 1015.21 1014.68 1014.21 1013.81 1013.39 1012.97 1012.60 1012.34 1011.99 1011.46 1010.53 1010.20 1009.56 1007.06 1003.96 1001.68 998.88 998.18 997.88 998.64 999.20 999.79 1000.29 1000.70 1001.22 1001.51 1002.18 1002.90 1003.53 1003.62 1003.34 1004.01 1005.45 1005.18 1006.27 1005.46 1005.11 1005.08 1004.39 1004.19 1004.36 1004.15 1003.82 1002.12 1003.29
1020.26 1019.65 1019.03 1018.45 1017.89 1017.27 1016.63 1015.98 1015.37 1014.79 1014.27 1013.79 1013.35 1012.89 1012.48 1012.13 1011.93 1011.55 1009.83 1008.97 1008.94 1008.79 1007.66 1004.62 1001.02 998.79 997.50 997.48 997.90 998.62 999.24 999.91 1000.49 1000.77 1000.87 1000.42 1000.28 1001.28 1002.51 1003.36 1004.49 1004.17 1004.57 1004.78 1004.07 1003.56 1004.32 1005.15 1005.75 1005.69 1005.19 1005.99 1005.09 1002.11
1020.03 1019.43 1018.79 1018.15 1017.57 1016.95 1016.29 1015.57 1014.84 1014.21 1013.72 1013.24 1012.74 1012.24 1011.82 1011.39 1011.51 1010.60 1010.00 1009.07 1008.85 1008.74 1007.44 1004.71 1001.38 998.19 997.58 997.44 997.94 998.36 998.73 999.40 999.93 1000.33 1000.36 1000.36 1000.36 1000.39 1001.47 1002.38 1003.46 1003.49 1003.17 1004.64 1004.02 1004.55 1005.37 1005.64 1005.21 1005.26 1005.33 1004.27 1002.73 1002.94
1019.71 1019.13 1018.48 1017.78 1017.12 1016.50 1015.82 1015.06 1014.33 1013.61 1013.03 1012.62 1012.15 1011.67 1011.36 1010.90 1010.95 1009.84 1007.87 1008.10 1008.80 1008.41 1006.99 1004.77 1001.45 999.35 998.71 998.41 998.39 998.25 998.78 999.15 999.51 999.86 999.88 1000.02 1000.01 1000.15 1000.84 1001.58 1002.61 1003.04 1003.20 1003.29 1003.68 1004.20 1005.20 1004.31 1004.38 1005.41 1004.25 1003.29 1003.44 1003.69
1019.31 1018.68 1018.05 1017.40 1016.70 1016.01 1015.28 1014.55 1013.80 1013.00 1012.22 1011.76 1011.28 1010.95 1010.96 1010.85 1009.27 1008.18 1007.93 1008.00 1008.27 1008.43 1006.79 1004.36 1002.29 1001.13 1000.07 1000.12 998.88 998.90 999.14 999.57 999.29 999.66 999.79 999.68 999.62 999.76 1000.00 1001.05 1001.93 1002.15 1002.03 1003.16 1003.61 1004.27 1004.95 1004.54 1005.16 1004.51 1004.15 1003.70 1003.82 1004.32
1018.90 1018.28 1017.61 1016.99 1016.34 1015.64 1014.90 1014.15 1013.38 1012.34 1011.11 1010.78 1010.64 1010.44 1009.25 1008.32 1008.24 1008.44 1008.31 1007.98 1007.80 1006.88 1006.38 1004.47 1002.97 1001.99 1001.20 1001.01 1001.09 1001.86 1002.26 1002.17 1001.40 1000.68 999.89 999.39 999.12 998.84 999.08 999.82 1000.93 1001.77 1002.12 1002.93 1003.50 1004.52 1004.80 1004.77 1004.81 1003.98 1004.08 1004.29 1004.51 1004.86
1018.47 1017.87 1017.21 1016.55 1015.93 1015.31 1014.63 1013.95 1013.32 1012.30 1009.84 1010.08 1010.08 1009.71 1008.65 1008.24 1008.12 1007.55 1006.88 1006.78 1005.98 1005.36 1004.16 1002.72 1002.16 1001.44 1000.76 1001.26 1002.07 1003.61 1004.33 1004.38 1003.70 1002.82 1001.99 1000.25 999.65 999.34 999.54 1000.53 1001.32 1001.53 1002.12 1002.58 1003.05 1003.11 1003.46 1003.39 1003.58 1004.04 1004.45 1004.70 1005.20 1005.48
1017.95 1017.30 1016.66 1016.01 1015.41 1014.86 1014.27 1013.71 1013.36 1012.83 1011.64 1012.57 1012.60 1010.87 1009.12 1007.66 1006.95 1006.42 1005.66 1004.88 1004.45 1003.99 1002.98 1002.23 1001.96 1001.69 1001.30 1001.27 1002.43 1004.43 1005.04 1005.40 1005.24 1004.40 1002.98 1001.59 1000.13 999.69 1000.12 1000.37 1000.14 1000.78 1001.85 1002.28 1002.48 1002.82 1003.27 1003.30 1003.59 1004.27 1004.76 1005.21 1005.34 1005.57
1017.45 1016.70 1015.97 1015.38 1014.80 1014.24 1013.82 1013.40 1013.18 1012.95 1012.15 1011.25 1011.44 1009.69 1007.65 1007.00 1006.43 1005.79 1004.99 1004.76 1004.97 1003.86 1003.65 1002.73 1002.44 1002.35 1001.95 1001.97 1002.65 1003.83 1004.82 1005.02 1004.62 1004.10 1003.00 1001.74 1000.57 1000.13 1000.00 1000.31 1000.86 1001.26 1001.92 1001.89 1002.24 1002.47 1003.03 1003.64 1003.94 1004.35 1004.68 1004.82 1005.08 1005.02
1016.77 1016.04 1015.27 1014.67 1014.06 1013.55 1013.25 1012.91 1012.70 1012.22 1011.90 1010.15 1008.62 1008.03 1006.82 1005.63 1004.80 1005.06 1004.26 1003.94 1003.72 1003.53 1003.14 1003.18 1003.29 1003.32 1002.86 1003.26 1003.70 1003.88 1003.59 1003.99 1004.01 1003.30 1001.93 1000.57 1000.08 999.80 999.79 999.94 1000.48 1001.05 1001.38 1001.78 1002.23 1002.74 1003.43 1003.74 1003.78 1004.01 1004.11 1004.47 1004.74 1005.01
1016.23 1015.19 1014.35 1013.90 1013.45 1013.18 1012.79 1012.45 1012.32 1012.07 1010.75 1008.61 1007.08 1006.10 1005.26 1004.81 1004.48 1004.56 1004.57 1004.29 1004.23 1003.57 1003.55 1003.44 1003.62 1003.77 1003.85 1003.82 1003.93 1004.22 1003.44 1002.92 1002.38 1002.27 1002.08 1000.84 999.37 999.75 1000.08 1000.23 1000.86 1001.25 1001.64 1002.24 1002.70 1003.17 1003.47 1003.64 1003.80 1004.05 1004.22 1004.51 1004.89 1005.25
1015.92 1014.53 1013.27 1013.23 1013.13 1012.70 1011.96 1011.42 1011.43 1010.89 1008.94 1007.44 1006.02 1005.16 1005.02 1004.90 1004.62 1004.67 1004.81 1004.98 1004.79 1004.58 1004.39 1004.42 1004.68 1004.44 1004.20 1003.90 1004.02 1003.66 1003.58 1003.29 1003.69 1003.80 1003.33 1002.13 1001.02 1000.28 1000.31 1000.63 1000.96 1001.26 1001.82 1002.47 1002.84 1003.17 1003.47 1003.75 1004.04 1004.36 1004.57 1004.82 1005.15 1005.55
1015.48 1014.16 1012.82 1012.69 1012.43 1011.81 1011.08 1010.96 1009.64 1008.92 1007.59 1006.42 1005.51 1005.17 1005.06 1005.17 1005.12 1005.28 1005.28 1005.07 1004.81 1005.20 1005.06 1005.06 1005.41 1004.96 1004.65 1004.37 1003.93 1003.69 1003.67 1003.91 1004.18 1003.92 1004.19 1003.23 1002.77 1002.13 1000.95 1001.09 1001.49 1001.82 1002.27 1002.77 1003.07 1003.48 1003.86 1004.07 1004.31 1004.58 1004.98 1005.07 1005.21 1005.21
1014.61 1013.46 1013.10 1012.92 1012.97 1011.94 1010.11 1010.14 1008.70 1007.73 1006.70 1005.84 1005.49 1005.48 1005.53 1005.64 1005.69 1005.59 1005.57 1005.55 1005.71 1005.63 1005.71 1005.62 1005.73 1005.36 1004.82 1004.27 1004.06 1004.44 1004.27 1004.02 1003.88 1003.95 1004.06 1003.84 1003.05 1003.57 1002.78 1002.21 1002.41 1002.64 1002.93 1003.31 1003.66 1003.94 1004.19 1004.41 1004.58 1004.87 1004.89 1004.90 1005.06 1005.18
1014.39 1013.56 1012.76 1012.44 1012.98 1012.61 1010.38 1008.55 1007.79 1007.23 1006.39 1005.41 1005.50 1005.75 1005.97 1006.00 1006.12 1006.11 1006.00 1005.80 1005.87 1005.96 1006.05 1006.03 1006.28 1005.89 1005.51 1005.14 1005.07 1004.75 1004.76 1004.72 1004.47 1004.31 1004.03 1003.86 1003.69 1003.58 1003.38 1003.35 1003.35 1003.49 1003.65 1003.93 1004.12 1004.36 1004.56 1004.66 1004.70 1004.84 1004.89 1005.00 1005.06 1005.20
1013.05 1012.27 1011.69 1011.99 1012.32 1011.59 1010.01 1008.36 1006.83 1006.69 1006.55 1005.94 1006.44 1007.10 1006.97 1006.43 1006.28 1006.50 1006.56 1006.36 1006.03 1006.02 1006.11 1006.20 1006.50 1006.68 1006.54 1006.09 1005.70 1005.28 1005.28 1005.20 1004.88 1004.34 1004.23 1004.08 1003.76 1003.76 1003.92 1003.61 1003.70 1003.84 1004.14 1004.31 1004.27 1004.51 1004.77 1004.88 1004.95 1004.89 1004.74 1005.03 1005.05 1005.26
1012.30 1011.09 1011.09 1011.47 1011.44 1011.06 1009.83 1008.93 1008.24 1006.70 1005.91 1005.66 1006.46 1006.95 1006.62 1006.25 1006.48 1006.97 1006.90 1006.91 1006.53 1006.97 1007.15 1007.36 1007.34 1007.11 1006.95 1006.53 1006.09 1005.70 1005.36 1005.47 1005.15 1005.39 1005.38 1005.38 1004.52 1004.02 1003.84 1003.78 1003.72 1003.74 1004.15 1004.47 1004.77 1004.68 1004.89 1004.95 1004.91 1004.80 1004.90 1005.14 1005.00 1005.11
1012.02 1010.78 1010.45 1010.81 1010.23 1009.14 1008.34 1007.43 1006.82 1005.51 1005.26 1005.49 1005.45 1005.34 1006.04 1006.45 1006.77 1007.37 1007.59 1007.62 1008.08 1008.27 1008.12 1007.90 1007.73 1007.47 1007.05 1006.65 1006.20 1006.09 1006.06 1005.99 1005.94 1005.79 1004.89 1005.30 1004.67 1004.18 1004.05 1003.92 1004.01 1004.26 1004.43 1004.44 1004.58 1004.83 1004.83 1004.88 1004.90 1004.97 1005.03 1005.28 1005.18 1005.27
1011.47 1010.96 1010.26 1009.51 1008.89 1008.11 1007.19 1005.81 1005.38 1004.91 1005.02 1004.75 1004.83 1004.91 1004.94 1005.70 1006.37 1007.09 1008.04 1008.51 1008.49 1008.41 1008.31 1008.02 1007.84 1007.35 1007.07 1006.70 1006.32 1006.14 1006.03 1006.07 1005.90 1005.55 1005.25 1004.54 1004.21 1004.23 1004.29 1004.29 1004.27 1004.45 1004.54 1004.41 1004.37 1004.64 1004.83 1004.90 1004.96 1005.19 1005.13 1005.25 1005.48 1005.52
1011.19 1010.63 1009.47 1008.54 1008.00 1007.40 1006.00 1005.46 1005.03 1004.85 1004.54 1004.27 1004.87 1005.18 1005.04 1004.87 1005.55 1006.18 1007.30 1008.10 1008.13 1008.26 1008.19 1008.25 1008.07 1007.71 1007.02 1006.71 1006.78 1006.04 1005.47 1005.12 1005.17 1004.82 1004.60 1004.50 1004.48 1004.53 1004.42 1004.40 1004.42 1004.27 1004.26 1004.35 1004.52 1004.71 1004.65 1004.70 1004.80 1004.98 1005.23 1005.20 1005.21 1005.49
1011.19 1010.36 1009.71 1008.38 1007.35 1006.54 1005.96 1005.47 1005.23 1005.16 1004.89 1004.68 1004.56 1005.15 1004.89 1004.43 1004.96 1006.03 1007.03 1007.65 1007.79 1007.92 1008.09 1008.25 1008.17 1007.61 1007.39 1006.85 1006.20 1005.40 1004.68 1004.48 1004.38 1004.58 1004.57 1004.34 1004.41 1004.40 1004.45 1004.36 1004.39 1004.32 1004.24 1004.47 1004.56 1004.55 1004.62 1004.81 1004.88 1004.84 1005.07 1005.08 1005.08 1005.07
1010.35 1008.94 1008.44 1007.47 1006.87 1006.49 1005.93 1005.68 1005.59 1005.19 1004.95 1004.77 1004.70 1005.03 1004.76 1004.75 1005.22 1006.21 1007.03 1007.34 1007.45 1007.61 1007.68 1007.36 1007.23 1007.13 1006.62 1006.08 1005.91 1005.05 1004.73 1004.31 1004.18 1004.18 1004.21 1004.29 1004.24 1004.28 1004.36 1004.53 1004.75 1004.82 1004.57 1004.38 1004.43 1004.42 1004.54 1004.41 1004.72 1004.65 1004.76 1004.67 1004.52 1004.64
1009.11 1007.81 1007.20 1006.67 1006.48 1006.28 1006.07 1005.50 1005.52 1005.53 1005.43 1005.50 1005.44 1005.39 1005.14 1005.23 1005.85 1006.81 1007.14 1007.13 1007.07 1007.12 1007.35 1006.99 1006.73 1006.33 1006.11 1006.07 1005.58 1005.32 1004.91 1004.51 1004.50 1004.45 1004.29 1004.34 1004.18 1004.11 1004.26 1004.59 1004.86 1005.08 1004.58 1004.60 1004.66 1004.61 1004.78 1004.69 1004.69 1004.62 1004.60 1004.55 1004.60 1004.64
1007.53 1007.06 1006.71 1006.39 1006.20 1005.99 1005.86 1005.59 1005.77 1005.81 1006.05 1006.70 1006.92 1006.26 1005.97 1006.11 1006.67 1007.00 1007.03 1007.00 1006.91 1006.58 1006.73 1006.42 1006.04 1005.24 1005.11 1005.20 1005.23 1005.07 1004.99 1005.04 1004.94 1004.83 1004.80 1004.82 1004.66 1004.71 1004.63 1004.81 1004.97 1004.91 1004.99 1005.18 1005.26 1005.05 1004.92 1004.93 1004.92 1004.82 1004.75 1004.75 1004.62 1004.58
1006.30 1006.03 1005.99 1006.04 1005.97 1005.84 1005.64 1005.37 1005.78 1005.90 1005.95 1006.30 1006.50 1006.49 1006.56 1006.78 1006.84 1007.00 1006.93 1006.79 1006.38 1006.52 1006.62 1006.39 1005.94 1005.74 1005.99 1005.61 1005.72 1005.72 1005.32 1005.26 1005.31 1005.31 1005.22 1005.17 1005.00 1005.09 1005.00 1004.96 1005.13 1005.11 1005.08 1005.32 1005.42 1005.13 1005.04 1005.16 1005.18 1005.25 1005.13 1004.91 1004.76 1004.77
1005.28 1005.24 1005.59 1005.63 1005.60 1005.48 1005.34 1005.27 1005.67 1005.68 1005.69 1005.73 1006.11 1006.52 1006.76 1007.03 1006.95 1006.79 1006.77 1006.63 1006.86 1007.04 1007.35 1007.28 1007.22 1006.60 1007.22 1007.28 1006.64 1006.15 1005.62 1005.55 1005.43 1005.55 1005.66 1005.59 1005.34 1005.29 1005.11 1005.09 1004.81 1004.61 1004.58 1004.98 1005.25 1005.08 1005.28 1005.39 1005.27 1005.28 1005.38 1005.08 1004.84 1004.62
1004.14 1004.51 1005.08 1005.04 1005.26 1005.20 1005.33 1005.29 1005.45 1005.66 1005.77 1005.86 1006.31 1006.76 1006.92 1006.91 1006.87 1006.66 1006.73 1006.87 1007.10 1007.66 1008.24 1008.08 1007.70 1007.00 1006.52 1006.57 1006.49 1006.28 1006.00 1005.88 1005.94 1006.04 1006.24 1005.87 1005.78 1005.76 1005.62 1005.43 1005.14 1005.05 1005.00 1005.15 1005.31 1005.25 1005.32 1005.14 1004.93 1004.75 1004.38 1004.32 1004.16 1004.44
1003.89 1004.26 1004.63 1004.86 1004.98 1005.12 1005.11 1005.08 1005.32 1005.46 1005.66 1006.29 1006.58 1006.69 1006.79 1006.99 1006.80 1007.01 1006.91 1007.29 1007.71 1008.02 1008.79 1008.35 1007.54 1007.09 1006.63 1006.60 1006.88 1006.43 1006.28 1006.19 1006.28 1006.27 1006.32 1006.45 1006.49 1006.43 1006.27 1006.00 1005.85 1005.68 1005.68 1005.69 1005.64 1005.58 1005.54 1005.49 1005.34 1005.05 1004.82 1004.68 1004.48 1004.31
1003.13 1003.72 1003.91 1004.48 1004.81 1004.94 1005.11 1005.38 1005.54 1005.63 1005.71 1006.23 1006.49 1006.43 1006.56 1006.58 1006.67 1006.79 1007.55 1007.19 1007.33 1007.27 1007.45 1007.25 1007.20 1007.15 1007.34 1007.14 1006.90 1006.70 1006.35 1006.56 1006.69 1006.79 1006.71 1006.70 1006.76 1006.87 1006.71 1006.65 1006.48 1006.28 1006.28 1006.30 1006.37 1006.25 1006.11 1006.02 1005.75 1005.51 1005.68 1005.70 1005.63 1005.64
Thickness
5616 5619 5622 5625 5627 5629 5631 5632 5634 5635 5637 5638 5640 5641 5642 5643 5644 5645 5657 5664 5665 5667 5683 5695 5702 5698 5705 5709 5703 5717 5720 5732 5737 5729 5730 5732 5740 5726 5725 5723 5725 5727 5723 5726 5722 5723 5723 5760 5776 5754 5756 5793 5807 5813
5617 5619 5622 5625 5627 5628 5629 5630 5632 5633 5634 5636 5638 5639 5640 5641 5641 5642 5653 5666 5668 5669 5687 5703 5706 5712 5711 5712 5712 5714 5718 5721 5730 5722 5720 5714 5703 5714 5710 5706 5733 5715 5726 5721 5726 5727 5744 5746 5751 5755 5743 5754 5778 5797
5617 5619 5621 5623 5625 5626 5628 5629 5630 5632 5633 5635 5637 5638 5639 5639 5639 5638 5643 5652 5660 5672 5697 5708 5718 5732 5734 5731 5736 5711 5721 5726 5719 5708 5691 5688 5681 5694 5691 5704 5718 5722 5719 5714 5722 5740 5736 5741 5746 5752 5739 5737 5760 5773
5616 5618 5620 5621 5623 5624 5626 5627 5629 5631 5633 5634 5635 5635 5636 5637 5637 5636 5638 5648 5651 5663 5672 5709 5735 5729 5748 5747 5738 5738 5733 5734 5730 5713 5687 5663 5684 5704 5702 5717 5714 5702 5699 5692 5702 5719 5724 5722 5739 5741 5742 5756 5755 5765
5614 5616 5617 5619 5620 5622 5624 5626 5628 5629 5631 5633 5634 5634 5635 5636 5636 5638 5640 5646 5648 5649 5661 5683 5710 5738 5746 5747 5738 5736 5730 5723 5719 5713 5715 5708 5705 5699 5707 5711 5703 5686 5691 5684 5686 5704 5705 5715 5727 5724 5730 5729 5720 5721
5611 5613 5615 5617 5618 5620 5622 5625 5627 5628 5629 5631 5632 5633 5633 5634 5634 5636 5652 5653 5651 5652 5653 5669 5712 5727 5742 5744 5738 5731 5726 5719 5713 5710 5712 5725 5732 5719 5702 5688 5690 5692 5695 5704 5709 5724 5718 5711 5705 5698 5703 5688 5692 5734
5609 5610 5613 5615 5616 5617 5619 5622 5625 5627 5628 5629 5630 5631 5632 5633 5630 5639 5646 5647 5646 5647 5648 5663 5689 5729 5736 5736 5731 5728 5730 5720 5714 5709 5708 5712 5715 5717 5709 5695 5697 5700 5705 5695 5709 5706 5694 5685 5691 5694 5697 5711 5731 5733
5607 5609 5610 5612 5614 5615 5617 5620 5623 5626 5627 5627 5628 5629 5628 5629 5627 5635 5649 5645 5638 5639 5648 5653 5678 5701 5716 5709 5707 5725 5713 5715 5712 5708 5711 5707 5714 5710 5698 5710 5705 5703 5704 5706 5703 5701 5688 5697 5695 5683 5703 5715 5716 5716
5606 5608 5609 5610 5612 5614 5616 5619 5621 5624 5626 5626 5627 5626 5624 5621 5635 5641 5638 5636 5632 5629 5633 5654 5660 5661 5696 5683 5701 5706 5709 5695 5713 5699 5701 5704 5699 5691 5706 5704 5701 5705 5707 5700 5700 5691 5682 5686 5676 5692 5704 5711 5710 5705
5604 5605 5607 5608 5610 5611 5613 5615 5617 5621 5627 5626 5625 5626 5633 5634 5630 5627 5624 5623 5621 5627 5629 5638 5655 5652 5675 5670 5673 5669 5668 5662 5665 5685 5699 5695 5699 5719 5719 5716 5708 5702 5700 5696 5690 5681 5677 5679 5684 5696 5698 5700 5700 5698
5602 5603 5604 5605 5606 5607 5608 5608 5609 5613 5629 5627 5627 5625 5625 5624 5623 5624 5622 5618 5625 5623 5639 5650 5653 5654 5674 5659 5653 5648 5636 5638 5641 5654 5663 5682 5690 5706 5708 5704 5701 5701 5698 5693 5689 5694 5694 5694 5694 5691 5688 5690 5687 5686
5600 5601 5601 5602 5602 5602 5602 5602 5600 5601 5607 5595 5592 5600 5612 5620 5620 5617 5619 5629 5627 5625 5642 5645 5644 5652 5660 5667 5649 5635 5627 5630 5622 5635 5653 5663 5689 5702 5698 5700 5707 5706 5698 5693 5691 5690 5689 5692 5689 5684 5680 5678 5679 5680
5596 5597 5598 5597 5597 5596 5595 5594 5592 5589 5592 5597 5594 5604 5614 5609 5589 5608 5609 5611 5603 5626 5628 5635 5635 5642 5648 5650 5644 5632 5623 5626 5638 5640 5647 5661 5680 5692 5696 5698 5694 5694 5694 5697 5692 5691 5686 5680 5680 5676 5675 5677 5677 5679
5593 5595 5594 5592 5592 5591 5588 5587 5585 5585 5585 5598 5606 5582 5604 5608 5618 5608 5617 5619 5626 5627 5631 5630 5625 5624 5635 5625 5623 5623 5636 5634 5634 5646 5658 5675 5681 5692 5694 5698 5696 5691 5693 5691 5688 5685 5680 5677 5678 5678 5679 5677 5674 5672
5587 5590 5591 5587 5582 5581 5580 5578 5576 5575 5585 5597 5607 5587 5612 5616 5619 5616 5615 5615 5616 5626 5623 5621 5620 5619 5614 5615 5621 5615 5616 5634 5654 5655 5659 5673 5692 5689 5687 5687 5680 5681 5682 5679 5678 5675 5675 5675 5675 5673 5673 5672 5669 5667
5580 5583 5586 5577 5570 5569 5571 5572 5570 5573 5588 5597 5606 5608 5610 5607 5608 5608 5605 5603 5609 5609 5610 5608 5598 5602 5606 5612 5609 5614 5616 5625 5625 5633 5642 5656 5672 5675 5676 5678 5679 5679 5675 5671 5668 5668 5668 5667 5666 5664 5665 5664 5661 5658
5570 5570 5571 5562 5556 5555 5558 5561 5573 5577 5587 5595 5600 5610 5608 5604 5601 5598 5596 5598 5604 5595 5590 5593 5586 5589 5602 5599 5605 5615 5615 5615 5619 5627 5628 5641 5645 5646 5659 5668 5669 5669 5666 5663 5661 5658 5657 5659 5659 5655 5652 5654 5656 5656
5566 5561 5551 5543 5536 5540 5557 5557 5570 5576 5584 5597 5595 5599 5601 5598 5593 5593 5591 5589 5582 5580 5580 5580 5582 5585 5592 5599 5603 5599 5607 5617 5624 5626 5626 5631 5641 5634 5643 5651 5654 5655 5655 5655 5653 5654 5653 5651 5650 5649 5651 5653 5652 5651
5559 5554 5551 5545 5534 5533 5553 5567 5575 5573 5587 5602 5601 5599 5597 5595 5593 5591 5587 5584 5580 5578 5575 5574 5571 5577 5584 5589 5590 5595 5599 5605 5611 5620 5626 5632 5634 5635 5635 5637 5642 5645 5645 5646 5647 5646 5645 5647 5647 5647 5648 5646 5644 5642
5568 5563 5560 5552 5545 5550 5560 5571 5587 5585 5582 5594 5590 5579 5580 5592 5592 5585 5577 5571 5576 5576 5575 5576 5574 5573 5575 5581 5588 5593 5595 5601 5607 5616 5620 5623 5628 5630 5631 5629 5633 5637 5637 5638 5643 5643 5639 5639 5642 5642 5644 5641 5639 5637
5575 5575 5568 5559 5559 5558 5568 5567 5569 5589 5593 5596 5589 5582 5590 5592 5589 5579 5575 5572 5573 5570 5569 5569 5568 5571 5573 5578 5584 5590 5597 5598 5604 5604 5603 5608 5619 5625 5630 5633 5635 5637 5636 5636 5633 5636 5636 5635 5637 5637 5636 5633 5634 5632
5577 5581 5580 5574 5576 5582 5583 5591 5589 5602 5605 5599 5601 5605 5591 5589 5584 5577 5572 5569 5562 5561 5564 5566 5566 5567 5571 5576 5583 5589 5591 5595 5598 5598 5600 5604 5614 5622 5625 5628 5629 5630 5630 5631 5632 5630 5631 5631 5632 5631 5631 5627 5629 5627
5583 5584 5587 5590 5589 5585 5585 5612 5604 5608 5599 5607 5608 5605 5606 5592 5586 5586 5569 5564 5565 5566 5566 5567 5568 5571 5573 5579 5585 5590 5592 5593 5597 5603 5606 5614 5620 5622 5623 5625 5628 5625 5625 5627 5631 5629 5628 5627 5626 5625 5624 5625 5622 5620
5588 5588 5594 5597 5599 5590 5614 5610 5616 5613 5615 5614 5604 5598 5601 5607 5603 5596 5583 5572 5573 5573 5572 5571 5569 5572 5579 5583 5584 5592 5599 5604 5603 5609 5614 5614 5616 5617 5621 5622 5623 5626 5627 5628 5626 5625 5627 5626 5624 5623 5620 5619 5618 5614
5582 5586 5587 5575 5608 5608 5607 5608 5608 5607 5604 5610 5609 5599 5602 5616 5604 5595 5586 5581 5578 5578 5577 5575 5575 5579 5581 5585 5591 5599 5608 5611 5613 5611 5614 5616 5615 5617 5617 5622 5623 5624 5627 5623 5623 5624 5624 5622 5620 5620 5617 5615 5614 5614
5574 5602 5593 5607 5607 5606 5608 5602 5601 5605 5608 5607 5609 5606 5610 5608 5601 5591 5587 5586 5585 5583 5582 5585 5583 5585 5589 5596 5596 5604 5607 5613 5615 5614 5616 5617 5619 5618 5618 5616 5614 5615 5623 5625 5623 5622 5621 5623 5619 5618 5617 5616 5615 5613
5587 5606 5614 5621 5614 5612 5605 5613 5609 5603 5599 5595 5598 5597 5601 5595 5590 5588 5590 5592 5591 5591 5590 5592 5594 5596 5595 5595 5601 5606 5610 5614 5613 5614 5619 5619 5621 5622 5620 5615 5613 5614 5622 5622 5620 5618 5614 5615 5614 5614 5613 5612 5611 5608
5614 5614 5608 5611 5608 5612 5604 5606 5598 5593 5590 5583 5579 5582 5585 5586 5583 5587 5591 5595 5595 5599 5596 5599 5603 5609 5609 5608 5608 5609 5610 5610 5612 5613 5615 5615 5617 5618 5619 5617 5616 5616 5616 5613 5612 5613 5612 5610 5609 5608 5607 5604 5602 5603
5619 5622 5619 5610 5612 5611 5609 5608 5600 5600 5600 5591 5583 5580 5583 5587 5590 5589 5591 5595 5601 5599 5599 5600 5602 5603 5600 5606 5605 5603 5609 5608 5604 5601 5601 5602 5607 5610 5615 5615 5614 5613 5612 5609 5605 5608 5608 5605 5603 5600 5598 5596 5596 5595
5622 5627 5615 5614 5610 5607 5613 5615 5606 5608 5607 5603 5597 5591 5589 5585 5589 5594 5594 5597 5592 5592 5591 5591 5590 5596 5585 5583 5588 5598 5606 5607 5607 5604 5600 5600 5605 5610 5613 5611 5612 5613 5613 5609 5606 5605 5599 5597 5595 5592 5589 5588 5587 5586
5636 5630 5618 5621 5614 5615 5612 5615 5612 5608 5605 5602 5597 5587 5584 5588 5590 5595 5593 5593 5592 5587 5580 5582 5585 5593 5596 5595 5595 5596 5596 5603 5603 5603 5604 5607 5607 5605 5605 5605 5607 5608 5605 5602 5598 5596 5593 5591 5590 5588 5589 5586 5584 5578
5631 5624 5618 5613 5614 5617 5617 5613 5608 5604 5604 5594 5590 5592 5590 5585 5586 5587 5592 5588 5583 5577 5576 5580 5589 5591 5596 5598 5598 5602 5599 5603 5602 5602 5601 5599 5598 5597 5598 5599 5599 5598 5594 5591 5589 5587 5583 5580 5579 5577 5576 5575 5574 5571
5631 5625 5626 5619 5614 5613 5613 5608 5603 5601 5601 5594 5590 5593 5591 5590 5585 5590 5587 5591 5589 5589 5587 5589 5591 5594 5593 5594 5595 5598 5602 5600 5595 5594 5594 5594 5591 5589 5591 5590 5588 5586 5583 5580 5576 5574 5571 5568 5567 5566 5562 5558 5555 5550